STARLINK-11560, 62917

Orbit data source: Space-Track

STARLINK-11560, 62917 is a payload satellite owned by SpaceX/Seattle (US) in LEO that was launched on Sat, 08 Feb 2025 UTC via an FALCON 9 launch vehicle from the Air Force Eastern Test Range (AFETR). Payload-class satellites include a variety of spacecraft equipped with specific instruments for various scientific and technological missions. These include communications satellites like Starlink; space stations such as the ISS; scientific satellites like the Hubble; Earth observation satellites from companies like Planet Labs, Umbra, and HawkEye 360; GPS; miniature CubeSats for education and research; and military/defense satellites.

Loading next visibility...
Identifier
62917, 2025-027L
Orbit
LEO
Last TLE update
11 hours ago
Origin
Manufacturer
SpaceX/Seattle
Mission
Operational Commercial Communications
Bus & Motor
STARLINK V2M, Unknown motor
Mass
730 kg wet, ~700 kg dry
Launch date (UTC)
2025-02-08 (5 months ago)
Launch vehicle
FALCON 9
Launch site
Air Force Eastern Test Range (AFETR)
Object type
Payload
Rocket body
Debris
Shape & HBR
Box + 2 Pan, 29 m
Radar Cross Section
36.964 m², Large (>1 m²)

Expand to show TLE details & history

TLE from 11 hours ago
0 STARLINK-11560
1 62917U 25027L   25181.84373911  .00203373  00000-0  15539-2 0  9997
2 62917  43.0006  65.6752 0001492 246.8638 113.2073 15.70779408 23521
Epoch: 2025-06-30T20:14Z
TLE epoch observation values (Epoch: 2025-06-30T20:14:59.059Z)
Latitude
0.00003°
Longitude
-157.21857°
Altitude
356.836 km
Speed
7.697 km/s
True Right ascension
04h 22m 42s
True Declination
0° 00' 00"
Sunlit
Object was in daylight at epoch
Visualization orbit readout
Latitude
22.70492°
Longitude
-133.44166°
Altitude
356.534 km
Speed
7.699 km/s
Apparent Right ascension
06h 17m 29s
Apparent Declination
-7° 39' 14"
Sunlit
Object is in daylight
Visualization observer readout
Local Sidereal Time
18:42:29
Azimuth
11.506° NNE
Elevation
-57.256°
Doppler factor
1
Orbital elements
Apogee altitude
359.655 km
Perigee altitude
357.645 km
Semi-major axis
6,736.787 km
Eccentricity
0.00015
Inclination
43.0006°
RAAN
65.6752°
Arg. of periapsis
246.8638°
True anomaly
Unknown
Mean anomaly
113.2073°
Eccentric anomaly
Unknown
Mean motion
3.92522 °/min
Orbital period
91.71 mins
BSTAR
0.0015539
Loading maneuver chart data...
Loading SW <> Apogee altitude chart data...
Loading historical data...
Loading historical data...
Loading historical data...
Loading historical data...
Loading historical data...
Loading historical data...
Loading historical data...

STARLINK-11560 Visibility forecast

Observer location: undefined°, undefined°

Span
Click to sort rows by Start time (UTC) header in descending order
Start Az.
Max El. time (UTC)
Max El. Az.
Max El.
End time (UTC)
End Az.
4 mins2025-07-01 19:20:35.925Z208.394° SW2025-07-01 19:22:35.925Z162.155° S24.313°2025-07-01 19:24:35.925Z100.046° ESE
4 mins2025-07-01 20:57:35.925Z272.396° WNW2025-07-01 20:58:35.925Z312.332° NW41.107°2025-07-01 21:01:35.925Z68.868° E
4 mins2025-07-01 22:33:35.925Z300.824° NW2025-07-01 22:35:35.925Z32.501° NE32.703°2025-07-01 22:37:35.925Z75.676° E
4 mins2025-07-02 00:09:35.925Z284.181° WNW2025-07-02 00:11:35.925Z147.827° SSE43.012°2025-07-02 00:13:35.925Z115.612° SE
|